This is the latest recevied weather packets stored in our database for station/object KC1BRV. If no packets are shown the sender has not sent any weather packets the latest 10 day(s).
| Time | Temp. | Humidity | Pressure | Rain* | Wind** | Luminosity | Snow |
|---|---|---|---|---|---|---|---|
| 1788358107 | 19.44° C | 84% | 1022.5 hPa | 0 mm | - | 103 W/m² | - |
| 1788357802 | 19.44° C | 84% | 1022.7 hPa | 0 mm | - | 103 W/m² | - |
| 1788357501 | 19.44° C | 87% | 1022.7 hPa | 0 mm | - | 111 W/m² | - |
| 1788357198 | 19.44° C | 85% | 1022.6 hPa | 0 mm | - | 100 W/m² | - |
| 1788356896 | 18.89° C | 86% | 1022.5 hPa | 0 mm | - | 117 W/m² | - |
| 1788356592 | 18.89° C | 88% | 1022.5 hPa | 0 mm | - | 140 W/m² | - |
| 1788356288 | 18.33° C | 92% | 1022.3 hPa | 0 mm | - | 362 W/m² | - |
| 1788355989 | 18.33° C | 94% | 1022.2 hPa | 0 mm | - | 111 W/m² | - |
| 1788355682 | 18.33° C | 96% | 1022.1 hPa | 0 mm | - | 92 W/m² | - |
| 1788355378 | 17.78° C | 98% | 1022.2 hPa | 0 mm | - | 105 W/m² | - |
| 1788355073 | 17.78° C | 99% | 1022 hPa | 0 mm | - | 115 W/m² | - |
| 1788354769 | 17.78° C | 99% | 1022 hPa | 0 mm | - | 108 W/m² | - |
| 1788354469 | 17.78° C | 99% | 1022 hPa | 0 mm | - | 115 W/m² | - |
| 1788354165 | 17.78° C | 99% | 1022.2 hPa | 0 mm | - | 108 W/m² | - |
| 1788353860 | 17.78° C | 99% | 1022.3 hPa | 0 mm | - | 100 W/m² | - |
| 1788353556 | 17.78° C | 99% | 1022.3 hPa | 0 mm | - | 89 W/m² | - |
| 1788353252 | 17.22° C | 99% | 1022.3 hPa | 0 mm | - | 82 W/m² | - |
| 1788352948 | 17.22° C | 99% | 1022.5 hPa | 0 mm | - | 80 W/m² | - |
| 1788352643 | 17.22° C | 99% | 1022.4 hPa | 0 mm | - | 68 W/m² | - |
| 1788352339 | 17.22° C | 99% | 1022.4 hPa | 0 mm | - | 74 W/m² | - |
| 1788352037 | 17.22° C | 99% | 1022.4 hPa | 0 mm | - | 81 W/m² | - |
| 1788351728 | 17.22° C | 99% | 1022.4 hPa | 0 mm | - | 80 W/m² | - |
| 1788351427 | 17.22° C | 99% | 1022.2 hPa | 0 mm | - | 85 W/m² | - |
| 1788351122 | 17.22° C | 99% | 1022.4 hPa | 0 mm | - | 101 W/m² | - |
| 1788350818 | 17.22° C | 99% | 1022.6 hPa | 0 mm | - | 99 W/m² | - |
* Rain latest hour (hover to see other rain measurements)
** Current wind speed in m/s (hover to see current wind gust speed)